| time (UTC) | temp C | wind direction | speed KPH | gust KPH | rain 1hr cm | rain 24hr cm | rain mn cm | humidity % | barometer mb |
| 20260510190905 | 20 | 312 | 3.2 | 12.9 | 0.00 | 0.00 | 0.03 | 46 | 1015.3 |
| 20260510190005 | 20 | 306 | 1.6 | 16.1 | 0.00 | 0.00 | 0.03 | 46 | 1015.2 |
| 20260510185405 | 21 | 293 | 1.6 | 12.9 | 0.00 | 0.00 | 0.03 | 48 | 1015.1 |
| 20260510184505 | 20 | 325 | 1.6 | 16.1 | 0.00 | 0.00 | 0.03 | 46 | 1015.3 |
| 20260510183626 | 20 | 314 | 1.6 | 12.9 | 0.00 | 0.00 | 0.03 | 49 | 1015.3 |
| 20260510182705 | 18 | 299 | 3.2 | 16.1 | 0.00 | 0.00 | 0.03 | 44 | 1015.3 |
| 20260510181805 | 19 | 311 | 3.2 | 20.9 | 0.00 | 0.00 | 0.03 | 48 | 1015.0 |
| 20260510180905 | 19 | 307 | 3.2 | 20.9 | 0.00 | 0.00 | 0.03 | 46 | 1015.3 |
| 20260510180028 | 19 | 317 | 1.6 | 20.9 | 0.00 | 0.00 | 0.03 | 52 | 1015.0 |
| 20260510175404 | 20 | 319 | 1.6 | 16.1 | 0.00 | 0.00 | 0.03 | 50 | 1014.8 |
| 20260510174504 | 19 | 314 | 1.6 | 16.1 | 0.00 | 0.00 | 0.03 | 52 | 1014.5 |
| 20260510173604 | 20 | 310 | 1.6 | 12.9 | 0.00 | 0.00 | 0.03 | 56 | 1014.6 |
| 20260510172725 | 19 | 321 | 1.6 | 12.9 | 0.00 | 0.00 | 0.03 | 54 | 1014.9 |
| 20260510171804 | 19 | 289 | 3.2 | 16.1 | 0.00 | 0.00 | 0.03 | 50 | 1014.7 |
| 20260510170904 | 20 | 354 | 1.6 | 16.1 | 0.00 | 0.00 | 0.03 | 51 | 1014.5 |
| 20260510170025 | 20 | 331 | 1.6 | 8.0 | 0.00 | 0.00 | 0.03 | 60 | 1014.6 |
| 20260510165404 | 19 | 324 | 1.6 | 12.9 | 0.00 | 0.00 | 0.03 | 55 | 1014.8 |
| 20260510164504 | 19 | 315 | 1.6 | 16.1 | 0.00 | 0.00 | 0.03 | 49 | 1015.0 |
| 20260510163604 | 19 | 326 | 1.6 | 8.0 | 0.00 | 0.00 | 0.03 | 52 | 1015.0 |
| 20260510162704 | 18 | 300 | 3.2 | 16.1 | 0.00 | 0.00 | 0.03 | 44 | 1015.0 |
| 20260510161804 | 18 | 312 | 3.2 | 16.1 | 0.00 | 0.00 | 0.03 | 45 | 1014.8 |
| 20260510160904 | 20 | 309 | 1.6 | 12.9 | 0.00 | 0.00 | 0.03 | 51 | 1014.9 |
| 20260510160025 | 18 | 325 | 1.6 | 16.1 | 0.00 | 0.00 | 0.03 | 51 | 1014.8 |
| 20260510155404 | 18 | 321 | 1.6 | 12.9 | 0.00 | 0.00 | 0.03 | 50 | 1014.5 |
| 20260510154504 | 17 | 307 | 1.6 | 16.1 | 0.00 | 0.00 | 0.03 | 52 | 1014.6 |
| 20260510153604 | 18 | 147 | 1.6 | 12.9 | 0.00 | 0.00 | 0.03 | 55 | 1014.3 |
| 20260510152704 | 20 | 264 | 0.0 | 8.0 | 0.00 | 0.00 | 0.03 | 54 | 1014.2 |
| 20260510151804 | 18 | 306 | 1.6 | 20.9 | 0.00 | 0.00 | 0.03 | 54 | 1014.3 |
| 20260510150904 | 18 | 314 | 0.0 | 12.9 | 0.00 | 0.00 | 0.03 | 48 | 1014.2 |
| 20260510150025 | 18 | 316 | 1.6 | 12.9 | 0.00 | 0.00 | 0.03 | 52 | 1014.0 |
| 20260510145404 | 17 | 298 | 1.6 | 12.9 | 0.00 | 0.00 | 0.03 | 55 | 1013.8 |
| 20260510144525 | 18 | 275 | 0.0 | 12.9 | 0.00 | 0.00 | 0.03 | 55 | 1014.0 |
| 20260510143604 | 17 | 129 | 0.0 | 12.9 | 0.00 | 0.00 | 0.03 | 59 | 1013.7 |
| 20260510142725 | 16 | 124 | 1.6 | 8.0 | 0.00 | 0.00 | 0.03 | 61 | 1013.5 |
| 20260510141804 | 15 | 68 | 0.0 | 8.0 | 0.00 | 0.00 | 0.03 | 61 | 1013.4 |
| 20260510140903 | 15 | 331 | 0.0 | 12.9 | 0.00 | 0.00 | 0.03 | 64 | 1013.3 |
| 20260510140004 | 15 | 329 | 0.0 | 12.9 | 0.00 | 0.00 | 0.03 | 64 | 1013.4 |
| 20260510135403 | 14 | 20 | 0.0 | 8.0 | 0.00 | 0.00 | 0.03 | 65 | 1013.2 |
| 20260510134504 | 14 | 345 | 0.0 | 12.9 | 0.00 | 0.00 | 0.03 | 61 | 1013.5 |
| 20260510133624 | 13 | 22 | 0.0 | 8.0 | 0.00 | 0.00 | 0.03 | 63 | 1012.9 |
| 20260510132704 | 13 | 102 | 0.0 | 8.0 | 0.00 | 0.00 | 0.03 | 65 | 1013.2 |
| 20260510131803 | 13 | 84 | 0.0 | 3.2 | 0.00 | 0.00 | 0.03 | 65 | 1012.8 |
| 20260510130903 | 13 | 300 | 0.0 | 3.2 | 0.00 | 0.00 | 0.03 | 69 | 1013.0 |
| 20260510130003 | 12 | 356 | 0.0 | 3.2 | 0.00 | 0.00 | 0.03 | 68 | 1013.0 |
| 20260510125424 | 12 | 55 | 0.0 | 3.2 | 0.00 | 0.00 | 0.03 | 67 | 1012.7 |
| 20260510124503 | 12 | 298 | 0.0 | 8.0 | 0.00 | 0.00 | 0.03 | 70 | 1012.7 |
| 20260510123603 | 12 | 323 | 0.0 | 8.0 | 0.00 | 0.00 | 0.03 | 69 | 1012.8 |
| 20260510122703 | 12 | 339 | 0.0 | 3.2 | 0.00 | 0.00 | 0.03 | 69 | 1012.5 |
| 20260510121824 | 12 | 126 | 0.0 | 3.2 | 0.00 | 0.00 | 0.03 | 70 | 1012.3 |
| 20260510120903 | 12 | 108 | 0.0 | 3.2 | 0.00 | 0.00 | 0.03 | 69 | 1012.1 |
| 20260510120008 | 11 | 0 | 0.0 | 0.0 | 0.00 | 0.00 | 0.03 | 73 | 1012.0 |
| 20260510115408 | 11 | 0 | 0.0 | 0.0 | 0.00 | 0.00 | 0.03 | 73 | 1012.2 |
| 20260510114508 | 11 | 0 | 0.0 | 0.0 | 0.00 | 0.00 | 0.03 | 78 | 1011.9 |
| 20260510113609 | 11 | 321 | 0.0 | 8.0 | 0.00 | 0.00 | 0.03 | 76 | 1011.9 |
| 20260510112708 | 11 | 0 | 0.0 | 0.0 | 0.00 | 0.00 | 0.03 | 78 | 1011.6 |
| 20260510111808 | 11 | 296 | 0.0 | 3.2 | 0.00 | 0.00 | 0.03 | 77 | 1011.5 |
| 20260510110908 | 11 | 301 | 0.0 | 3.2 | 0.00 | 0.00 | 0.03 | 78 | 1011.0 |
| 20260510110008 | 11 | 306 | 0.0 | 8.0 | 0.00 | 0.00 | 0.03 | 79 | 1010.9 |
| 20260510105408 | 11 | 313 | 0.0 | 8.0 | 0.00 | 0.00 | 0.03 | 78 | 1011.2 |
| 20260510104508 | 11 | 306 | 1.6 | 12.9 | 0.00 | 0.00 | 0.03 | 80 | 1010.9 |
| 20260510103608 | 11 | 314 | 0.0 | 8.0 | 0.00 | 0.00 | 0.03 | 84 | 1010.5 |
| 20260510102708 | 11 | 331 | 0.0 | 3.2 | 0.00 | 0.00 | 0.03 | 84 | 1010.3 |
| 20260510101808 | 11 | 302 | 1.6 | 12.9 | 0.00 | 0.00 | 0.03 | 83 | 1010.4 |
| 20260510100907 | 11 | 303 | 0.0 | 3.2 | 0.00 | 0.00 | 0.03 | 88 | 1010.2 |
| 20260510100029 | 11 | 308 | 0.0 | 8.0 | 0.00 | 0.00 | 0.03 | 89 | 1009.8 |
| 20260510095407 | 11 | 300 | 1.6 | 8.0 | 0.00 | 0.00 | 0.03 | 87 | 1009.7 |
| 20260510094508 | 11 | 294 | 0.0 | 8.0 | 0.00 | 0.00 | 0.03 | 90 | 1009.6 |
| 20260510093607 | 11 | 311 | 1.6 | 8.0 | 0.00 | 0.00 | 0.03 | 90 | 1009.4 |
| 20260510092707 | 11 | 299 | 1.6 | 12.9 | 0.00 | 0.25 | 0.03 | 91 | 1009.6 |
| 20260510091807 | 11 | 306 | 1.6 | 8.0 | 0.00 | 0.25 | 0.03 | 89 | 1009.1 |
| 20260510090928 | 11 | 317 | 0.0 | 8.0 | 0.00 | 0.25 | 0.03 | 90 | 1009.0 |
| 20260510090007 | 12 | 304 | 1.6 | 12.9 | 0.00 | 0.00 | 0.00 | 87 | 1008.6 |
| 20260510085407 | 13 | 302 | 3.2 | 16.1 | 0.00 | 0.00 | 0.00 | 77 | 1008.7 |
| 20260510084507 | 13 | 303 | 3.2 | 16.1 | 0.00 | 0.00 | 0.00 | 77 | 1008.3 |
| 20260510083607 | 14 | 299 | 1.6 | 20.9 | 0.00 | 0.00 | 0.00 | 76 | 1008.2 |
| 20260510082707 | 14 | 299 | 1.6 | 12.9 | 0.00 | 0.00 | 0.00 | 76 | 1008.1 |
| 20260510081807 | 15 | 293 | 1.6 | 8.0 | 0.00 | 0.00 | 0.00 | 77 | 1008.3 |
| 20260510080928 | 15 | 303 | 1.6 | 12.9 | 0.00 | 0.00 | 0.00 | 77 | 1008.0 |
| 20260510080007 | 15 | 302 | 1.6 | 8.0 | 0.00 | 0.25 | 0.00 | 78 | 1008.1 |
| 20260510075407 | 15 | 288 | 0.0 | 8.0 | 0.00 | 0.25 | 0.00 | 78 | 1008.0 |
| 20260510074507 | 15 | 278 | 0.0 | 12.9 | 0.00 | 0.25 | 0.00 | 78 | 1007.7 |
| 20260510073607 | 15 | 294 | 0.0 | 8.0 | 0.00 | 0.25 | 0.00 | 76 | 1007.7 |
| 20260510072707 | 15 | 291 | 0.0 | 3.2 | 0.00 | 0.25 | 0.00 | 76 | 1008.1 |
| 20260510071807 | 15 | 264 | 0.0 | 3.2 | 0.00 | 0.25 | 0.00 | 75 | 1007.6 |
| 20260510070907 | 16 | 310 | 0.0 | 8.0 | 0.00 | 0.25 | 0.00 | 74 | 1007.6 |
| 20260510070007 | 16 | 289 | 0.0 | 3.2 | 0.00 | 0.25 | 0.00 | 74 | 1007.6 |
| 20260510065407 | 16 | 286 | 0.0 | 3.2 | 0.00 | 0.25 | 0.00 | 74 | 1007.9 |
| 20260510064507 | 16 | 259 | 0.0 | 8.0 | 0.00 | 0.25 | 0.00 | 73 | 1007.9 |
| 20260510063607 | 16 | 279 | 0.0 | 8.0 | 0.00 | 0.25 | 0.00 | 73 | 1007.9 |
| 20260510062707 | 16 | 260 | 1.6 | 12.9 | 0.00 | 0.25 | 0.00 | 71 | 1007.6 |
| 20260510061807 | 16 | 238 | 1.6 | 8.0 | 0.00 | 0.25 | 0.00 | 71 | 1007.6 |
| 20260510060907 | 17 | 247 | 1.6 | 12.9 | 0.00 | 0.25 | 0.00 | 72 | 1008.0 |
| 20260510060007 | 17 | 234 | 3.2 | 16.1 | 0.00 | 0.25 | 0.00 | 73 | 1007.5 |
| 20260510055407 | 17 | 240 | 1.6 | 16.1 | 0.00 | 0.25 | 0.00 | 74 | 1007.6 |
| 20260510054507 | 17 | 251 | 1.6 | 8.0 | 0.00 | 0.25 | 0.00 | 75 | 1007.7 |
| 20260510053607 | 16 | 222 | 0.0 | 3.2 | 0.00 | 0.25 | 0.00 | 77 | 1007.7 |
| 20260510052707 | 16 | 0 | 0.0 | 0.0 | 0.00 | 0.25 | 0.00 | 78 | 1007.5 |
| 20260510051807 | 16 | 184 | 0.0 | 3.2 | 0.00 | 0.51 | 0.00 | 77 | 1007.3 |
| 20260510050928 | 16 | 261 | 0.0 | 3.2 | 0.00 | 0.51 | 0.00 | 77 | 1007.3 |
| 20260510050006 | 16 | 0 | 0.0 | 0.0 | 0.00 | 0.51 | 0.00 | 78 | 1007.2 |
| 20260510045407 | 16 | 0 | 0.0 | 0.0 | 0.00 | 0.51 | 0.00 | 79 | 1007.0 |
| 20260510044507 | 15 | 0 | 0.0 | 0.0 | 0.00 | 0.51 | 0.00 | 79 | 1007.1 |
| 20260510043606 | 15 | 0 | 0.0 | 0.0 | 0.00 | 0.51 | 0.00 | 79 | 1007.2 |
| 20260510042706 | 15 | 0 | 0.0 | 0.0 | 0.00 | 0.51 | 0.00 | 78 | 1007.0 |
| 20260510041806 | 16 | 0 | 0.0 | 0.0 | 0.00 | 0.51 | 0.00 | 77 | 1006.9 |
| 20260510040927 | 16 | 268 | 0.0 | 8.0 | 0.00 | 0.51 | 0.00 | 75 | 1006.9 |
| 20260510040007 | 16 | 185 | 0.0 | 3.2 | 0.00 | 0.51 | 0.00 | 76 | 1006.7 |
| 20260510035406 | 16 | 203 | 0.0 | 3.2 | 0.00 | 0.51 | 0.43 | 76 | 1006.6 |
| 20260510034506 | 16 | 249 | 0.0 | 3.2 | 0.00 | 0.51 | 0.43 | 75 | 1006.3 |
| 20260510033606 | 16 | 0 | 0.0 | 0.0 | 0.00 | 0.51 | 0.43 | 75 | 1006.3 |
| 20260510032706 | 16 | 0 | 0.0 | 0.0 | 0.00 | 0.51 | 0.43 | 74 | 1006.4 |
| 20260510031806 | 16 | 306 | 0.0 | 3.2 | 0.00 | 0.51 | 0.43 | 74 | 1006.4 |
| 20260510030906 | 16 | 0 | 0.0 | 0.0 | 0.00 | 0.51 | 0.43 | 74 | 1006.4 |
| 20260510030006 | 17 | 241 | 0.0 | 3.2 | 0.00 | 0.51 | 0.43 | 74 | 1006.4 |
| 20260510025406 | 16 | 0 | 0.0 | 0.0 | 0.00 | 0.51 | 0.43 | 74 | 1006.4 |
| 20260510024527 | 17 | 0 | 0.0 | 0.0 | 0.00 | 0.51 | 0.43 | 73 | 1006.4 |
| 20260510023606 | 17 | 138 | 0.0 | 3.2 | 0.00 | 0.51 | 0.43 | 73 | 1006.3 |
| 20260510022706 | 17 | 148 | 0.0 | 3.2 | 0.00 | 0.51 | 0.43 | 73 | 1006.2 |
| 20260510021806 | 17 | 166 | 0.0 | 3.2 | 0.00 | 0.51 | 0.43 | 73 | 1006.0 |
| 20260510020906 | 17 | 261 | 0.0 | 3.2 | 0.00 | 0.51 | 0.43 | 72 | 1006.0 |
| 20260510020006 | 17 | 0 | 0.0 | 0.0 | 0.00 | 0.51 | 0.43 | 71 | 1006.0 |
| 20260510015406 | 17 | 144 | 0.0 | 3.2 | 0.00 | 0.51 | 0.43 | 71 | 1005.6 |
| 20260510014506 | 18 | 139 | 0.0 | 3.2 | 0.00 | 0.51 | 0.43 | 70 | 1005.8 |
| 20260510013606 | 18 | 169 | 0.0 | 3.2 | 0.00 | 0.51 | 0.43 | 69 | 1005.2 |
| 20260510012706 | 18 | 167 | 0.0 | 3.2 | 0.00 | 0.51 | 0.43 | 68 | 1005.2 |
| 20260510011806 | 18 | 256 | 0.0 | 3.2 | 0.00 | 0.51 | 0.43 | 66 | 1005.3 |
| 20260510010927 | 18 | 209 | 0.0 | 3.2 | 0.00 | 0.51 | 0.43 | 65 | 1005.3 |
| 20260510010006 | 19 | 198 | 0.0 | 3.2 | 0.00 | 0.51 | 0.43 | 66 | 1005.1 |
| 20260510005427 | 19 | 177 | 0.0 | 3.2 | 0.00 | 0.51 | 0.43 | 64 | 1004.8 |
| 20260510004506 | 19 | 194 | 0.0 | 8.0 | 0.00 | 0.51 | 0.43 | 64 | 1005.0 |
| 20260510003606 | 19 | 186 | 0.0 | 8.0 | 0.00 | 0.51 | 0.43 | 63 | 1005.0 |
| 20260510002705 | 20 | 231 | 1.6 | 8.0 | 0.00 | 0.51 | 0.43 | 62 | 1004.8 |
| 20260510001805 | 20 | 179 | 0.0 | 12.9 | 0.00 | 0.51 | 0.43 | 61 | 1004.5 |
| 20260510000926 | 20 | 244 | 1.6 | 8.0 | 0.00 | 0.51 | 0.43 | 60 | 1004.6 |
| 20260510000006 | 20 | 222 | 1.6 | 12.9 | 0.00 | 0.51 | 0.43 | 58 | 1004.4 |
| 20260509235405 | 20 | 187 | 0.0 | 3.2 | 0.00 | 0.51 | 0.43 | 60 | 1004.4 |
| 20260509234505 | 21 | 215 | 1.6 | 12.9 | 0.00 | 0.51 | 0.43 | 58 | 1004.5 |
| 20260509233605 | 20 | 193 | 1.6 | 8.0 | 0.00 | 0.51 | 0.43 | 59 | 1004.4 |
| 20260509232706 | 20 | 232 | 1.6 | 20.9 | 0.00 | 0.51 | 0.43 | 58 | 1004.4 |
| 20260509231806 | 21 | 195 | 1.6 | 12.9 | 0.00 | 0.51 | 0.43 | 57 | 1004.2 |
| 20260509230905 | 21 | 212 | 3.2 | 16.1 | 0.00 | 0.51 | 0.43 | 58 | 1004.3 |
| 20260509230005 | 21 | 237 | 1.6 | 24.1 | 0.00 | 0.51 | 0.43 | 57 | 1003.9 |
| 20260509225405 | 21 | 220 | 1.6 | 24.1 | 0.00 | 0.51 | 0.43 | 58 | 1004.1 |
| 20260509224505 | 21 | 173 | 1.6 | 12.9 | 0.00 | 0.51 | 0.43 | 61 | 1004.4 |
| 20260509223605 | 21 | 209 | 1.6 | 16.1 | 0.00 | 0.51 | 0.43 | 60 | 1004.2 |
| 20260509222705 | 21 | 197 | 3.2 | 12.9 | 0.00 | 0.51 | 0.43 | 58 | 1003.9 |
| 20260509221826 | 21 | 197 | 3.2 | 20.9 | 0.00 | 0.51 | 0.43 | 58 | 1003.8 |
| 20260509220926 | 21 | 149 | 1.6 | 16.1 | 0.00 | 0.51 | 0.43 | 57 | 1004.1 |
| 20260509220005 | 22 | 185 | 3.2 | 16.1 | 0.00 | 0.51 | 0.43 | 58 | 1003.8 |
| 20260509215405 | 22 | 167 | 3.2 | 12.9 | 0.00 | 0.51 | 0.43 | 58 | 1003.8 |
| 20260509214505 | 22 | 183 | 1.6 | 12.9 | 0.00 | 0.51 | 0.43 | 59 | 1004.1 |
| 20260509213605 | 22 | 194 | 3.2 | 12.9 | 0.00 | 0.51 | 0.43 | 60 | 1003.8 |
| 20260509212726 | 22 | 178 | 1.6 | 12.9 | 0.00 | 0.51 | 0.43 | 59 | 1004.2 |
| 20260509211805 | 22 | 159 | 3.2 | 16.1 | 0.00 | 0.51 | 0.43 | 59 | 1004.3 |
| 20260509210926 | 22 | 178 | 3.2 | 16.1 | 0.00 | 0.51 | 0.43 | 58 | 1004.4 |
| 20260509210005 | 22 | 201 | 1.6 | 12.9 | 0.00 | 0.51 | 0.43 | 55 | 1004.2 |
| 20260509205405 | 22 | 182 | 1.6 | 12.9 | 0.00 | 0.51 | 0.43 | 58 | 1004.4 |
| 20260509204505 | 23 | 202 | 3.2 | 16.1 | 0.00 | 0.51 | 0.43 | 59 | 1004.5 |
| 20260509203605 | 23 | 214 | 3.2 | 16.1 | 0.00 | 0.51 | 0.43 | 58 | 1004.4 |
| 20260509202705 | 23 | 232 | 3.2 | 20.9 | 0.00 | 0.51 | 0.43 | 56 | 1004.4 |
| 20260509201805 | 23 | 191 | 1.6 | 16.1 | 0.00 | 0.51 | 0.43 | 58 | 1004.7 |
| 20260509200926 | 22 | 166 | 3.2 | 16.1 | 0.00 | 0.51 | 0.43 | 58 | 1004.8 |
| 20260509200005 | 23 | 186 | 1.6 | 8.0 | 0.00 | 0.51 | 0.43 | 58 | 1004.6 |
| 20260509195405 | 23 | 214 | 3.2 | 12.9 | 0.00 | 0.51 | 0.43 | 54 | 1005.0 |
| 20260509194505 | 24 | 258 | 1.6 | 16.1 | 0.00 | 0.51 | 0.43 | 58 | 1004.8 |
| 20260509193605 | 23 | 199 | 1.6 | 12.9 | 0.00 | 0.51 | 0.43 | 58 | 1004.9 |
| 20260509192704 | 23 | 172 | 1.6 | 12.9 | 0.00 | 0.51 | 0.43 | 60 | 1005.1 |
| 20260509191805 | 22 | 213 | 3.2 | 12.9 | 0.00 | 0.51 | 0.43 | 62 | 1005.2 |